Vorticity
nan nan nan nan nan nan nan nan nan nan nan nan nan nan nan nan nan nan nan nan nan nan nan nan nan nan nan nan nan nan nan nan nan nan nan nan nan nan nan nan nan nan nan nan
nan 32 24 18 11 18 22 7 5 13 6 10 10 17 21 13 16 20 22 15 10 9 8 8 9 9 9 10 11 8 9 9 8 9 9 9 9 9 10 8 8 7 8 nan
nan 16 20 6 17 32 27 20 10 6 7 12 11 16 12 16 13 15 25 27 20 14 11 11 11 10 9 9 9 9 9 9 10 10 10 9 9 9 10 10 9 8 8 nan
nan 13 16 -2 -1 12 9 11 17 20 30 23 5 7 5 13 12 11 11 15 16 16 14 14 17 14 10 12 11 10 9 9 10 10 10 10 10 9 8 10 10 10 10 nan
nan 13 0 -11 0 13 12 -0 4 31 33 5 -6 -2 -1 7 14 10 10 8 10 10 12 18 18 15 11 9 10 8 9 10 11 10 9 9 9 9 9 9 10 10 10 nan
nan 13 4 -6 5 31 20 -9 5 14 11 13 16 3 0 3 9 13 15 15 11 13 11 8 16 21 16 12 9 9 10 10 10 11 10 9 9 9 9 10 9 10 11 nan
nan 11 -3 -6 25 32 8 4 4 7 8 11 18 12 9 8 7 12 9 14 14 13 13 10 14 17 17 18 15 14 13 12 11 12 11 10 9 9 10 10 10 10 10 nan
nan 12 0 3 20 11 2 8 12 9 6 8 6 9 12 11 8 7 8 10 15 13 10 14 16 15 16 11 14 19 15 15 15 13 11 14 13 11 11 11 10 10 10 nan
nan 13 3 8 9 2 11 8 3 11 14 8 8 8 9 7 10 10 8 9 11 11 10 9 11 12 8 9 16 18 15 12 11 11 12 15 14 11 12 12 10 11 11 nan
nan 9 3 15 6 5 3 6 7 7 14 13 9 8 9 6 7 10 8 10 10 8 11 11 10 9 8 10 11 11 15 15 12 11 11 11 14 12 11 11 11 11 11 nan
nan -3 9 10 -9 -6 5 5 4 9 10 11 12 10 9 7 7 8 8 9 11 9 8 12 12 9 7 8 11 9 12 15 15 14 13 7 9 17 21 17 15 13 13 nan
nan 8 12 2 -2 -0 5 7 9 5 4 12 12 10 9 11 11 6 9 10 8 8 8 10 10 9 10 11 11 9 10 13 15 14 13 12 7 2 6 15 24 25 20 nan
nan 17 20 16 14 15 13 9 11 13 10 7 10 11 10 10 9 9 12 11 9 9 10 10 12 9 8 11 11 12 12 14 16 15 12 12 9 9 2 4 7 10 19 nan
nan 26 25 17 14 13 12 13 15 13 11 10 10 9 11 10 8 7 11 14 9 11 13 13 15 13 8 8 9 11 12 16 18 17 13 13 13 13 10 10 4 1 6 nan
nan 22 25 21 10 9 15 18 11 11 10 13 13 8 7 8 10 9 10 13 16 14 12 15 11 7 8 11 10 12 16 13 13 13 14 14 15 14 11 10 10 10 10 nan
nan 13 16 20 21 23 24 22 13 11 14 13 10 11 11 9 11 12 14 16 16 13 11 12 11 10 11 8 10 12 15 14 12 11 12 13 14 13 12 12 11 9 11 nan
nan 11 14 15 20 25 28 23 17 15 16 15 13 12 13 13 12 12 12 15 12 12 11 9 11 12 15 10 10 13 14 14 13 12 12 13 12 12 13 11 9 10 10 nan
nan 6 9 14 18 20 21 21 20 19 20 18 14 13 12 13 11 10 13 13 10 8 8 9 13 19 19 18 17 13 13 13 10 11 12 12 11 11 12 11 11 11 11 nan
nan 8 7 10 13 15 14 13 16 16 16 17 15 12 11 11 11 13 13 10 10 6 7 8 14 21 14 22 25 16 13 10 10 10 10 9 10 12 12 12 12 11 11 nan
nan 9 9 8 10 12 12 12 12 13 14 16 14 11 10 11 13 13 11 9 9 10 9 15 17 12 11 17 18 14 13 13 10 11 11 10 10 11 10 11 12 11 11 nan
nan 7 8 8 8 8 10 10 11 11 11 12 14 12 13 11 12 11 11 6 4 14 13 13 17 19 13 15 19 16 13 11 11 11 10 11 10 11 11 10 11 11 11 nan
nan 6 7 6 6 6 7 8 7 7 8 8 8 13 15 13 11 10 10 9 4 12 18 12 8 15 19 18 21 16 13 13 11 11 12 11 10 10 10 10 11 11 11 nan
nan 9 9 8 8 8 6 5 6 5 5 8 8 7 9 13 10 9 6 10 11 13 20 7 5 8 19 19 15 15 11 12 15 12 11 13 11 11 10 11 11 11 11 nan
nan 17 10 12 8 7 14 13 9 6 5 7 12 11 6 9 14 14 5 4 12 14 13 12 11 9 12 14 10 12 14 10 10 13 13 11 11 12 11 11 10 10 10 nan
nan 17 16 15 11 11 12 14 17 14 9 11 12 6 14 16 6 7 12 13 7 8 7 5 11 17 11 10 11 12 10 11 13 11 12 12 12 10 11 11 11 11 10 nan
nan 12 10 14 17 12 10 14 13 13 14 9 6 13 19 12 13 18 13 6 5 18 18 7 4 5 9 11 13 13 15 14 13 13 13 12 12 11 11 10 10 10 11 nan
nan nan nan nan nan nan nan nan nan nan nan nan nan nan nan nan nan nan nan nan nan nan nan nan nan nan nan nan nan nan nan nan nan nan nan nan nan nan nan nan nan nan nan nan
CAPE
0 0 0 0 0 0 0 0 0 0 0 0 0 0 0 0 0 0 112 588 997 879 776 700 522 436 720 916 1305 1731 1804 1824 1771 1601 1821 2015 1758 1361 1269 1619 1816 1015 1593 1837
0 0 0 0 0 0 0 0 0 0 0 0 0 0 0 0 0 0 0 597 1127 1024 956 871 696 557 711 830 1144 1569 1827 1943 1952 2017 1886 1949 2146 1965 1552 1431 1337 1974 1762 1984
0 0 0 0 0 0 0 0 0 0 0 0 40 76 30 0 0 0 0 513 1135 1141 1083 1096 942 773 722 834 959 1526 1764 1854 2107 2117 2280 2193 2172 2219 2226 1964 1668 1287 1741 2091
0 0 0 0 0 0 0 0 0 0 0 241 255 188 93 69 91 65 18 0 0 156 673 1150 1227 1066 938 910 984 1108 1521 1992 2081 2392 2358 2397 2237 2198 2191 2310 2381 2144 1690 1809
0 0 0 0 0 0 0 0 0 0 297 308 180 90 66 35 182 133 88 59 52 73 15 45 1315 1488 1385 1299 1299 1269 1337 1448 2209 2347 2597 2463 2437 2292 2332 2376 2393 2570 2570 2363
0 0 0 0 0 0 0 0 0 0 0 0 36 45 0 0 35 87 726 366 112 60 48 67 248 116 1628 1698 1741 1621 1575 1654 1661 2324 2515 2624 2528 2546 2505 2522 2659 2625 2666 2805
0 0 1 0 0 0 0 0 0 0 0 0 0 0 0 0 0 0 34 983 1233 1103 576 99 126 211 1463 1695 1935 2029 1967 1765 1808 1811 2387 2553 2671 2653 2680 2762 2666 2709 2798 2806
0 0 3 0 0 0 0 0 0 0 0 0 0 0 0 0 0 0 0 589 1172 2479 2536 1805 369 313 95 882 1393 1929 1855 2215 2208 2293 2242 2507 2538 2658 2722 2709 2910 2949 2871 2954
7 3 3 0 26 0 0 0 0 0 0 0 0 0 0 0 0 0 0 9 530 1288 2235 2371 2228 2145 2407 2453 2068 2174 2228 2275 2416 2498 2622 2656 2665 2652 2801 2893 2975 3122 3193 3226
0 0 0 0 0 0 0 0 0 0 0 0 0 0 0 0 0 0 0 0 120 830 1102 1691 1909 1826 1725 1636 1854 2655 1513 2877 2229 2415 2509 2378 2962 3023 3120 3279 3345 3350 3444 3498
0 0 0 0 0 0 0 0 0 0 0 0 0 0 0 0 0 0 0 0 46 239 553 883 1643 1189 932 851 1032 1567 2208 2446 3127 2836 2472 2540 1445 1617 3189 3531 3650 3728 3690 3759
1 0 0 0 0 0 0 0 0 0 0 0 0 0 0 0 0 0 0 0 4 58 111 438 1141 934 803 744 1149 1616 1722 2208 3272 3294 2993 2896 442 1 1 0 28 1175 1967 2654
6 4 0 0 0 0 0 0 0 0 0 0 0 0 0 0 0 0 0 0 21 108 190 626 931 1016 1080 1218 1418 1256 976 703 1518 3195 3276 3392 2803 438 1 0 0 0 0 0
1 0 0 0 0 0 0 0 0 0 0 0 0 0 0 0 0 0 0 0 63 52 527 727 1050 804 543 584 617 503 740 585 807 1920 2312 2940 2836 474 0 0 0 0 0 0
2 0 0 0 0 0 0 0 0 0 0 0 0 0 0 0 0 0 0 0 0 193 374 517 702 609 531 639 464 268 704 612 423 284 260 456 604 562 391 111 0 0 0 0
2 4 2 0 0 0 0 0 0 0 0 0 0 0 0 0 0 0 0 0 5 0 0 0 4 14 283 139 383 378 38 334 303 197 98 33 48 8 0 0 0 0 0 0
7 6 10 8 5 13 5 0 0 0 0 0 0 0 0 0 0 0 0 0 0 0 0 0 0 0 0 5 70 323 19 0 0 0 0 0 0 0 0 0 0 0 0 0
1 6 2 6 10 11 8 7 3 0 1 1 0 0 0 0 1 0 0 0 0 0 0 0 0 0 0 4 178 151 0 0 0 0 0 0 0 0 0 0 0 0 0 0
2 3 6 2 4 10 10 11 8 5 5 3 0 1 3 3 2 1 0 0 1 1 0 0 0 0 0 0 0 0 0 0 0 0 0 0 0 0 0 0 0 0 0 0
0 0 4 2 0 4 8 13 7 7 8 6 5 4 3 3 4 2 1 1 2 2 1 0 0 0 0 0 0 0 0 0 0 0 0 0 0 0 1 0 1 2 1 1
0 0 0 0 0 1 4 4 7 6 4 4 6 6 5 6 4 2 0 0 1 2 3 4 1 0 0 0 0 0 0 0 0 0 0 0 0 1 1 2 2 2 1 1
23 1 0 0 0 1 0 0 0 0 2 4 3 3 4 6 4 2 2 2 1 1 0 2 2 5 3 0 0 0 0 0 0 0 0 0 0 1 1 1 1 1 2 1
14 10 11 3 0 0 0 0 0 0 2 12 17 17 18 16 6 2 1 1 0 0 0 5 4 3 1 1 2 0 0 0 0 0 0 0 0 0 0 0 0 0 1 1
0 1 1 7 7 4 1 1 0 0 0 1 4 20 32 21 1 3 0 0 0 0 0 0 1 7 5 0 0 0 0 0 0 0 0 0 0 0 0 0 0 0 0 0
0 0 0 0 6 0 0 0 0 5 0 0 0 0 0 0 0 0 0 0 0 0 0 0 0 0 0 0 0 0 0 0 0 0 0 0 0 0 0 0 0 0 0 0
0 0 0 0 0 0 0 0 0 0 0 0 0 0 0 0 0 0 0 0 0 0 0 0 0 0 0 0 0 0 0 0 0 0 0 0 0 0 0 0 0 0 0 0
0 0 0 0 0 0 0 0 0 0 0 0 0 0 0 0 0 0 0 0 0 0 0 0 0 0 0 0 0 0 0 0 0 0 0 0 0 0 0 0 0 0 0 0